User: anonymous   Login
Location: Limerick
(52.6800°N, 8.6400°W)
Time: 21:56:21
(UTC+00:00)
Language:

Sapphire - Orbit

View from above orbital plane
View from above orbital plane
View from above satellite
View from above satellite

Ground track
Ground track

The orbit data is extracted from the following two-line orbital elements,

1 26932U 01043D   14328.53012801  .00000086  00000-0  65431-4 0  7667
2 26932 067.0572 346.0798 0008693 282.3325 077.6802 14.30064594686577
Epoch (UTC): 24 November 2014 12:43:23
Eccentricity: 0.0008693
inclination: 67.0572°
perigee height: 785 km
apogee height: 798 km
right ascension of ascending node: 346.0798°
argument of perigee: 282.3325°
revolutions per day: 14.30064594
mean anomaly at epoch: 77.6802°
orbit number at epoch: 68657

The dashed part of the orbit path shows where the satellite is in the earth's shadow,  

DLR